Location: Unspecified
(37.6100°N, 2.7800°W)
Time: 00:55:54
(UTC+00:00)

Amateur Radio Satellites - All Passes

Search period start: 17 January 2018 00:25
Search period end: 18 January 2018 00:25
Location: Unspecified, 37.6100°N, 2.7800°W

Satellite Date Start Highest point End Downlink Frequencies (MHz)
Time Altitude Azimuth
NO-84 17 Jan 00:35:17 00:36:11 11° 31° (NNE) 00:37:06 435.350 FM
O/OREOS (USA 219) 17 Jan 00:38:18 00:42:06 27° 103° (ESE) 00:45:54 437.305
POLYITAN 1 17 Jan 00:39:04 00:43:12 49° 287° (WNW) 00:47:20 437.675
UKube-1 17 Jan 00:43:27 00:46:27 19° 67° (ENE) 00:49:26 .
DX 1 17 Jan 00:43:48 00:47:37 31° 70° (ENE) 00:51:27 434.975-435.025
SPROUT 17 Jan 00:47:57 00:51:13 22° 265° (W) 00:54:30 437.525
NANOSAT C BR1 17 Jan 00:59:43 01:03:32 32° 289° (WNW) 01:07:20 145.865
QB50P2 17 Jan 01:09:04 01:12:16 21° 292° (WNW) 01:15:28 145.880/145.840
50 SAT 17 Jan 01:11:50 01:14:51 58° 76° (ENE) 01:17:54 437.505
YUBILEINY 17 Jan 01:19:14 01:26:17 26° 291° (WNW) 01:33:24 435.215
Oscar 19 17 Jan 01:22:26 01:27:24 45° 99° (E) 01:32:18 437.125/150
MOZHAYETS 4 17 Jan 01:23:03 01:25:32 14° 64° (ENE) 01:28:00
AO-91 17 Jan 01:23:43 01:27:57 54° 101° (E) 01:32:38 145.960
BUGSAT 1 17 Jan 01:31:10 01:35:25 78° 284° (WNW) 01:39:39 437.445
ITUPSAT 1 17 Jan 01:43:17 01:45:50 14° 63° (ENE) 01:48:21 437.325
EO-79 17 Jan 01:44:05 01:44:44 10° 297° (WNW) 01:45:22 145.935-145.965
DUCHIFAT 1 17 Jan 01:48:12 01:49:49 12° 296° (WNW) 01:51:26 145.980
Gurwin Techsat 1B 17 Jan 02:08:44 02:14:05 88° 285° (WNW) 02:19:24 435.225
NO-84 17 Jan 02:10:40 02:13:38 71° 226° (SW) 02:16:45 435.350 FM
O/OREOS (USA 219) 17 Jan 02:17:39 02:21:25 26° 299° (WNW) 02:25:12 437.305
UKube-1 17 Jan 02:18:16 02:22:10 34° 262° (W) 02:26:07 .
DX 1 17 Jan 02:20:37 02:23:48 20° 265° (W) 02:27:01 434.975-435.025
BEESAT 17 Jan 02:24:08 02:28:31 38° 70° (ENE) 02:32:55 436.000
CUBESAT XI-V 17 Jan 02:48:33 02:52:33 28° 70° (ENE) 02:56:32 437.345
AO-7 17 Jan 02:54:56 03:02:27 36° 98° (E) 03:09:52 .
MOZHAYETS 4 17 Jan 02:57:41 03:02:11 54° 260° (W) 03:06:44
AO-91 17 Jan 03:01:56 03:04:04 14° 292° (WNW) 03:06:18 145.960
Oscar 19 17 Jan 03:02:35 03:06:22 21° 295° (WNW) 03:10:06 437.125/150
ITUPSAT 1 17 Jan 03:18:26 03:23:07 58° 259° (W) 03:27:50 437.325
KKS-1 17 Jan 03:28:35 03:29:23 10° 63° (ENE) 03:30:11 437.445
Gurwin Techsat 1B 17 Jan 03:52:05 03:53:10 11° 301° (WNW) 03:54:17 435.225
ITAMSAT 1 17 Jan 03:57:08 04:02:19 68° 102° (ESE) 04:07:29 435.822/435.867
BEESAT 17 Jan 04:02:55 04:06:22 20° 266° (W) 04:09:51 436.000
M-CUBED/EXP-1 PRIME 17 Jan 04:11:07 04:12:45 13° 98° (E) 04:14:22 437.505
ISS 17 Jan 04:13:11 04:15:52 23° 29° (NNE) 04:18:33 437.550
DOVE 4 17 Jan 04:18:58 04:22:37 26° 97° (E) 04:26:24 437.250
nSIGHT-1 17 Jan 04:19:01 04:21:58 33° 34° (NNE) 04:24:54 .
CUBESAT XI-V 17 Jan 04:25:52 04:29:49 26° 264° (W) 04:33:47 437.345
AO-7 17 Jan 04:47:22 04:55:18 49° 296° (WNW) 05:03:11 .
KKS-1 17 Jan 05:00:55 05:05:18 70° 258° (WSW) 05:09:44 437.445
LilacSat-2 17 Jan 05:26:01 05:28:49 20° 95° (E) 05:31:35 437.200
STARS 17 Jan 05:30:20 05:34:40 87° 255° (WSW) 05:39:04 437.465
STRAND 1 17 Jan 05:31:50 05:34:21 14° 62° (ENE) 05:36:51 437.568
XW-2C 17 Jan 05:34:08 05:37:09 22° 95° (E) 05:40:08 145.795 - 145.815
ITAMSAT 1 17 Jan 05:38:28 05:41:10 14° 298° (WNW) 05:43:52 435.822/435.867
M-CUBED/EXP-1 PRIME 17 Jan 05:44:19 05:47:15 27° 294° (WNW) 05:50:04 437.505
FALCONSAT 3 17 Jan 05:45:24 05:48:30 26° 159° (SSE) 05:51:36 435.103
ISS 17 Jan 05:49:21 05:52:25 38° 226° (SW) 05:55:30 437.550
FO-29 17 Jan 05:49:42 05:52:24 13° 60° (ENE) 05:54:59 435.910
HO-68 17 Jan 05:53:51 05:58:39 19° 92° (E) 06:03:26 435.675
nSIGHT-1 17 Jan 05:55:30 05:57:59 21° 229° (SW) 06:00:28 .
DOVE 4 17 Jan 05:56:46 06:00:12 24° 290° (WNW) 06:03:45 437.250
CUTE 1.7 + AOD 2 17 Jan 05:59:33 06:01:20 12° 91° (E) 06:03:06 437.475
XW-2F 17 Jan 06:14:33 06:18:18 73° 101° (ESE) 06:22:00 145.980 - 146.000
XW-2D 17 Jan 06:20:07 06:23:53 82° 284° (WNW) 06:27:37 145.860 - 145.880
KAITUO 1B 17 Jan 06:21:05 06:24:46 65° 100° (E) 06:28:24 145.475/437.950
SO-50 17 Jan 06:29:25 06:33:52 87° 117° (ESE) 06:38:24 436.795
CUTE-I 17 Jan 06:36:18 06:41:39 86° 104° (ESE) 06:46:59 437.470
XW-2B 17 Jan 06:37:38 06:41:18 49° 285° (WNW) 06:44:54 145.730 - 145.750
RS-15 17 Jan 06:38:49 06:44:52 15° 96° (E) 06:50:52 29.354- 29.394
NUDT-PHONESAT 17 Jan 06:40:44 06:44:24 71° 284° (WNW) 06:48:02 437.300
CUBEBUG 2 17 Jan 06:57:28 07:01:58 41° 98° (E) 07:06:25 437.445
LilacSat-2 17 Jan 06:59:57 07:03:00 24° 289° (WNW) 07:06:03 437.200
STRAND 1 17 Jan 07:07:51 07:12:54 68° 258° (WSW) 07:18:00 437.568
XW-2C 17 Jan 07:08:20 07:11:10 20° 290° (WNW) 07:13:59 145.795 - 145.815
UWE-3 17 Jan 07:12:46 07:16:59 33° 96° (E) 07:21:09 435.000/436.395/437.385
FALCONSAT 3 17 Jan 07:23:39 07:27:16 57° 173° (S) 07:30:52 435.103
AAUSAT CUBESAT 2 17 Jan 07:25:58 07:29:36 30° 97° (E) 07:33:13 437.432
FO-29 17 Jan 07:29:27 07:36:41 79° 74° (ENE) 07:43:05 435.910
SEEDS 17 Jan 07:29:46 07:33:57 89° 87° (E) 07:38:06 437.485
CUTE 1.7 + AOD 2 17 Jan 07:33:20 07:37:23 47° 286° (WNW) 07:41:24 437.475
HO-68 17 Jan 07:39:48 07:46:55 72° 289° (WNW) 07:54:02 435.675
ZACube-1 17 Jan 07:46:49 07:51:07 39° 98° (E) 07:55:20 437.345
AO-73 17 Jan 07:56:27 08:00:48 43° 98° (E) 08:05:04 145.935
XW-2A 17 Jan 08:12:22 08:15:44 72° 283° (WNW) 08:19:03 145.665 - 145.685
SO-50 17 Jan 08:13:10 08:14:57 12° 318° (NW) 08:16:46 436.795
CUTE-I 17 Jan 08:19:09 08:20:54 12° 300° (WNW) 08:22:41 437.470
TIGRISAT 17 Jan 08:23:55 08:27:23 23° 68° (ENE) 08:30:55 435.000
Oscar 11 17 Jan 08:34:46 08:39:07 73° 101° (ESE) 08:43:23 .
CUBEBUG 2 17 Jan 08:34:51 08:38:13 20° 293° (WNW) 08:41:35 437.445
UNISAT 6 17 Jan 08:37:19 08:41:18 36° 71° (ENE) 08:45:24 437.425
RS-15 17 Jan 08:42:58 08:55:11 74° 115° (ESE) 09:07:20 29.354- 29.394
DELFI C3 17 Jan 08:46:37 08:48:53 15° 93° (E) 08:51:10 145.870
UWE-3 17 Jan 08:49:33 08:53:12 23° 292° (WNW) 08:56:50 435.000/436.395/437.385
AAUSAT CUBESAT 2 17 Jan 09:01:55 09:04:49 19° 292° (WNW) 09:07:42 437.432
FALCONSAT 3 17 Jan 09:02:36 09:06:11 53° 189° (S) 09:09:46 435.103
FO-29 17 Jan 09:17:57 09:22:03 16° 268° (W) 09:25:57 435.910
EO-88 17 Jan 09:17:58 09:19:53 14° 93° (E) 09:21:49 145.990 - 145.960
ZACube-1 17 Jan 09:23:52 09:27:03 19° 293° (WNW) 09:30:12 437.345
HO-68 17 Jan 09:30:38 09:33:24 13° 307° (NW) 09:36:10 435.675
YUBILEINY 17 Jan 09:33:36 09:40:49 28° 70° (ENE) 09:47:57 435.215
AO-73 17 Jan 09:33:43 09:36:38 17° 294° (WNW) 09:39:30 145.935
PCSat 17 Jan 09:49:19 09:53:45 27° 107° (ESE) 09:58:13 145.827
AIST 2D 17 Jan 09:49:55 09:52:21 18° 70° (ENE) 09:54:47 435.315
TIGRISAT 17 Jan 10:00:09 10:03:54 28° 264° (W) 10:07:44 435.000
PRISM 17 Jan 10:11:55 10:15:59 84° 255° (WSW) 10:20:04 437.425
UNISAT 6 17 Jan 10:15:08 10:18:07 18° 267° (W) 10:21:09 437.425
NANOSAT C BR1 17 Jan 10:16:34 10:17:55 11° 64° (ENE) 10:19:17 145.865
DELFI C3 17 Jan 10:20:09 10:23:42 33° 288° (WNW) 10:27:14 145.870
Max Valier Satellite 17 Jan 10:20:38 10:24:13 47° 285° (WNW) 10:27:45 145.860
BEESAT 3 17 Jan 10:22:59 10:26:51 53° 117° (ESE) 10:30:45 437.485
QB50P2 17 Jan 10:24:10 10:27:05 18° 67° (ENE) 10:29:59 145.880/145.840
FALCONSAT 3 17 Jan 10:41:59 10:44:54 22° 203° (SSW) 10:47:50 435.103
O/OREOS (USA 219) 17 Jan 10:49:33 10:53:44 38° 64° (ENE) 10:57:53 437.305
EO-88 17 Jan 10:50:21 10:53:35 30° 288° (WNW) 10:56:46 145.990 - 145.960
LO-87 17 Jan 10:50:33 10:53:32 24° 96° (E) 10:56:32 145.935 - 145.965
EO-79 17 Jan 10:55:36 10:59:28 36° 72° (ENE) 11:03:21 145.935-145.965
RS-15 17 Jan 10:57:39 11:08:44 37° 318° (NW) 11:19:41 29.354- 29.394
DUCHIFAT 1 17 Jan 11:00:15 11:03:56 31° 71° (ENE) 11:07:38 145.980
BEESAT 2 17 Jan 11:00:20 11:03:56 33° 114° (ESE) 11:07:36 435.950
AIST 2D 17 Jan 11:22:28 11:25:19 23° 264° (W) 11:28:11 435.315
POLYITAN 1 17 Jan 11:28:57 11:33:10 88° 258° (WSW) 11:37:27 437.675
YUBILEINY 17 Jan 11:29:35 11:38:04 59° 269° (W) 11:46:30 435.215
PCSat 17 Jan 11:31:54 11:36:55 39° 304° (NW) 11:42:00 145.827
ESTCUBE 1 17 Jan 11:44:16 11:48:47 86° 103° (ESE) 11:53:15 437.505/2401.250
NANOSAT C BR1 17 Jan 11:48:58 11:53:05 57° 260° (W) 11:57:15 145.865
Gurwin Techsat 1B 17 Jan 11:50:55 11:53:50 15° 62° (ENE) 11:56:45 435.225
QB50P2 17 Jan 11:58:45 12:02:34 34° 262° (W) 12:06:26 145.880/145.840
BEESAT 3 17 Jan 12:02:28 12:04:40 14° 314° (NW) 12:06:53 437.485
VELOX 1 17 Jan 12:04:29 12:07:12 16° 93° (E) 12:09:56 145.980
BUGSAT 1 17 Jan 12:18:34 12:22:29 53° 74° (ENE) 12:26:29 437.445
AO-91 17 Jan 12:20:30 12:23:22 26° 72° (ENE) 12:26:14 145.960
LO-87 17 Jan 12:24:14 12:26:44 18° 291° (WNW) 12:29:15 145.935 - 145.965
O/OREOS (USA 219) 17 Jan 12:29:50 12:32:47 17° 260° (W) 12:35:44 437.305
EO-79 17 Jan 12:32:41 12:35:19 16° 267° (W) 12:37:58 145.935-145.965
SPROUT 17 Jan 12:33:57 12:38:14 70° 101° (E) 12:42:31 437.525
DUCHIFAT 1 17 Jan 12:36:35 12:39:36 19° 266° (W) 12:42:38 145.980
Oscar 19 17 Jan 12:37:10 12:42:12 54° 73° (ENE) 12:47:17 437.125/150
BEESAT 2 17 Jan 12:38:39 12:41:43 21° 311° (NW) 12:44:48 435.950
JUGNU 17 Jan 12:48:24 12:50:42 12° 174° (S) 12:53:00 437.505
AO-85 17 Jan 13:16:20 13:20:11 56° 303° (WNW) 13:24:19 145.980
RS-15 17 Jan 13:19:05 13:26:21 17° 352° (N) 13:33:30 29.354- 29.394
Gurwin Techsat 1B 17 Jan 13:27:54 13:33:10 67° 258° (WSW) 13:38:29 435.225
VELOX 1 17 Jan 13:39:40 13:43:47 40° 288° (WNW) 13:47:52 145.980
AO-7 17 Jan 13:51:44 13:59:23 43° 63° (ENE) 14:07:05 .
BUGSAT 1 17 Jan 13:57:39 13:58:09 10° 269° (W) 13:58:39 437.445
AO-91 17 Jan 13:58:23 13:59:56 13° 266° (W) 14:01:29 145.960
50 SAT 17 Jan 13:59:32 14:02:37 58° 101° (E) 14:05:40 437.505
UKube-1 17 Jan 14:06:34 14:10:39 41° 99° (E) 14:14:42 .
DX 1 17 Jan 14:09:03 14:13:24 78° 102° (ESE) 14:17:44 434.975-435.025
Oscar 19 17 Jan 14:18:37 14:21:49 16° 268° (W) 14:25:01 437.125/150
BEESAT 17 Jan 14:28:37 14:29:45 11° 91° (E) 14:30:52 436.000
JUGNU 17 Jan 14:36:27 14:38:49 12° 185° (S) 14:41:12 437.505
SRMSAT 17 Jan 14:50:22 14:51:17 10° 169° (S) 14:52:12 437.500
M-CUBED/EXP-1 PRIME 17 Jan 14:53:35 14:56:41 19° 64° (ENE) 14:59:40 437.505
MOZHAYETS 4 17 Jan 14:54:31 14:58:53 39° 98° (E) 15:03:11
SO-50 17 Jan 15:02:15 15:06:47 45° 55° (NE) 15:11:22 436.795
ITAMSAT 1 17 Jan 15:13:07 15:18:17 86° 77° (ENE) 15:23:29 435.822/435.867
ITUPSAT 1 17 Jan 15:20:44 15:25:16 40° 99° (E) 15:29:48 437.325
DOVE 4 17 Jan 15:23:08 15:26:28 22° 69° (ENE) 15:29:42 437.250
RS-15 17 Jan 15:35:59 15:45:09 24° 29° (NNE) 15:53:56 29.354- 29.394
UKube-1 17 Jan 15:43:40 15:46:17 16° 294° (WNW) 15:48:55 .
AO-7 17 Jan 15:44:20 15:52:03 42° 260° (W) 15:59:52 .
BEESAT 17 Jan 16:03:10 16:07:56 69° 286° (WNW) 16:12:41 436.000
CUTE-I 17 Jan 16:19:24 16:22:06 14° 62° (ENE) 16:24:48 437.470
CUBESAT XI-V 17 Jan 16:23:16 16:27:55 88° 103° (ESE) 16:32:30 437.345
HO-68 17 Jan 16:23:35 16:26:17 12° 53° (NE) 16:28:59 435.675
M-CUBED/EXP-1 PRIME 17 Jan 16:26:34 16:30:47 39° 256° (WSW) 16:34:48 437.505
MOZHAYETS 4 17 Jan 16:32:27 16:35:41 19° 293° (WNW) 16:38:55
SRMSAT 17 Jan 16:36:43 16:39:34 14° 179° (S) 16:42:26 437.500
SO-50 17 Jan 16:43:36 16:46:55 19° 250° (WSW) 16:50:14 436.795
XW-2F 17 Jan 16:53:24 16:56:33 25° 71° (ENE) 16:59:44 145.980 - 146.000
KKS-1 17 Jan 16:54:03 16:57:44 25° 96° (E) 17:01:22 437.445
XW-2D 17 Jan 16:59:05 17:02:33 33° 73° (ENE) 17:06:02 145.860 - 145.880
KAITUO 1B 17 Jan 16:59:12 17:02:10 22° 70° (ENE) 17:05:08 145.475/437.950
ITUPSAT 1 17 Jan 16:59:18 17:02:46 20° 294° (WNW) 17:06:13 437.325
DOVE 4 17 Jan 17:00:10 17:04:01 28° 263° (W) 17:07:43 437.250
XW-2B 17 Jan 17:16:13 17:19:57 53° 75° (ENE) 17:23:42 145.730 - 145.750
NUDT-PHONESAT 17 Jan 17:17:20 17:20:45 34° 73° (ENE) 17:24:10 437.300
STARS 17 Jan 17:22:13 17:25:23 19° 95° (E) 17:28:32 437.465
NO-84 17 Jan 17:24:02 17:26:36 23° 128° (SE) 17:29:02 435.350 FM
LilacSat-2 17 Jan 17:38:36 17:42:27 67° 259° (W) 17:46:19 437.200
XW-2C 17 Jan 17:46:13 17:50:00 57° 260° (W) 17:53:47 145.795 - 145.815
RS-15 17 Jan 17:48:27 18:00:11 72° 56° (ENE) 18:11:16 29.354- 29.394
CUBEBUG 2 17 Jan 17:53:58 17:57:29 25° 69° (ENE) 18:01:06 437.445
CUTE-I 17 Jan 17:56:12 18:01:30 71° 258° (WSW) 18:06:49 437.470
HO-68 17 Jan 18:05:38 18:12:44 71° 71° (ENE) 18:19:52 435.675
UWE-3 17 Jan 18:08:17 18:11:29 20° 68° (ENE) 18:14:47 435.000/436.395/437.385
AAUSAT CUBESAT 2 17 Jan 18:14:52 18:17:28 16° 67° (ENE) 18:20:04 437.432
SEEDS 17 Jan 18:19:01 18:23:03 45° 74° (ENE) 18:27:05 437.485
CUTE 1.7 + AOD 2 17 Jan 18:23:13 18:27:30 90° 119° (ESE) 18:31:48 437.475
SRMSAT 17 Jan 18:26:16 18:27:53 11° 190° (S) 18:29:29 437.500
XW-2F 17 Jan 18:27:50 18:30:36 19° 265° (W) 18:33:22 145.980 - 146.000
KKS-1 17 Jan 18:30:26 18:34:11 27° 291° (WNW) 18:37:55 437.445
KAITUO 1B 17 Jan 18:33:06 18:36:01 21° 265° (W) 18:38:56 145.475/437.950
XW-2D 17 Jan 18:34:39 18:36:47 14° 267° (W) 18:38:56 145.860 - 145.880
PCSat 17 Jan 18:39:06 18:42:34 17° 47° (NE) 18:46:02 145.827
ZACube-1 17 Jan 18:40:49 18:44:20 24° 69° (ENE) 18:47:55 437.345
XW-2A 17 Jan 18:41:28 18:44:15 24° 72° (ENE) 18:47:03 145.665 - 145.685
BEESAT 3 17 Jan 18:41:53 18:44:38 18° 49° (NE) 18:47:19 437.485
AO-73 17 Jan 18:49:58 18:53:38 26° 69° (ENE) 18:57:22 145.935
NUDT-PHONESAT 17 Jan 18:52:51 18:54:40 13° 267° (W) 18:56:30 437.300
STARS 17 Jan 18:57:47 19:01:46 34° 289° (WNW) 19:05:45 437.465
NO-84 17 Jan 19:01:19 19:03:42 21° 322° (NW) 19:06:01 435.350 FM
STRAND 1 17 Jan 19:20:13 19:25:11 48° 99° (E) 19:30:08 437.568
BEESAT 2 17 Jan 19:20:28 19:22:28 13° 45° (NE) 19:24:26 435.950
Oscar 11 17 Jan 19:27:20 19:31:25 42° 73° (ENE) 19:35:32 .
CUBEBUG 2 17 Jan 19:30:26 19:33:59 25° 265° (W) 19:37:40 437.445
UWE-3 17 Jan 19:43:46 19:47:41 33° 264° (W) 19:51:44 435.000/436.395/437.385
AAUSAT CUBESAT 2 17 Jan 19:48:45 19:52:35 36° 262° (W) 19:56:26 437.432
HO-68 17 Jan 19:56:09 20:01:00 19° 268° (W) 20:05:51 435.675
SEEDS 17 Jan 19:56:55 19:58:56 13° 268° (W) 20:00:56 437.485
RS-15 17 Jan 20:02:17 20:11:25 29° 257° (WSW) 20:20:16 29.354- 29.394
AO-85 17 Jan 20:10:26 20:11:51 11° 41° (NE) 20:13:17 145.980
XW-2A 17 Jan 20:14:45 20:16:53 16° 266° (W) 20:19:02 145.665 - 145.685
ZACube-1 17 Jan 20:16:40 20:20:27 28° 265° (W) 20:24:18 437.345
BEESAT 3 17 Jan 20:18:40 20:22:16 36° 245° (WSW) 20:25:47 437.485
PCSat 17 Jan 20:21:07 20:26:32 74° 245° (WSW) 20:31:56 145.827
AO-73 17 Jan 20:26:07 20:29:45 25° 265° (W) 20:33:29 145.935
FO-29 17 Jan 20:26:18 20:31:33 80° 103° (ESE) 20:36:47 435.910
ISS 17 Jan 20:52:27 20:54:29 16° 129° (SE) 20:56:31 437.550
nSIGHT-1 17 Jan 20:54:35 20:57:12 24° 132° (SE) 20:59:51 .
BEESAT 2 17 Jan 20:56:36 21:00:33 59° 243° (WSW) 21:04:24 435.950
Max Valier Satellite 17 Jan 20:56:47 21:00:23 49° 75° (ENE) 21:04:01 145.860
STRAND 1 17 Jan 21:00:24 21:03:58 19° 295° (WNW) 21:07:32 437.568
DELFI C3 17 Jan 21:02:28 21:06:23 85° 258° (WSW) 21:10:18 145.870
Oscar 11 17 Jan 21:05:11 21:07:43 15° 268° (W) 21:10:15 .
EO-88 17 Jan 21:24:57 21:28:36 76° 77° (ENE) 21:32:16 145.990 - 145.960
AO-85 17 Jan 21:48:05 21:53:05 69° 59° (ENE) 21:58:20 145.980
TIGRISAT 17 Jan 21:52:22 21:57:04 69° 101° (ESE) 22:01:43 435.000
PRISM 17 Jan 21:56:11 21:58:28 15° 94° (E) 22:00:45 437.425
UNISAT 6 17 Jan 22:06:35 22:11:18 77° 284° (WNW) 22:15:59 437.425
FO-29 17 Jan 22:14:36 22:15:54 11° 300° (WNW) 22:17:12 435.910
ISS 17 Jan 22:27:32 22:30:40 45° 324° (NW) 22:33:49 437.550
nSIGHT-1 17 Jan 22:30:28 22:33:18 29° 328° (NNW) 22:36:07 .
YUBILEINY 17 Jan 22:32:09 22:39:47 34° 85° (E) 22:47:24 435.215
ESTCUBE 1 17 Jan 22:41:24 22:45:52 61° 75° (ENE) 22:50:20 437.505/2401.250
AIST 2D 17 Jan 22:48:31 22:51:28 25° 96° (E) 22:54:23 435.315
LO-87 17 Jan 22:56:43 23:00:13 60° 259° (W) 23:03:45 145.935 - 145.965
VELOX 1 17 Jan 23:01:01 23:02:44 12° 64° (ENE) 23:04:28 145.980
POLYITAN 1 17 Jan 23:16:32 23:19:24 17° 94° (E) 23:22:15 437.675
SPROUT 17 Jan 23:25:03 23:28:59 39° 72° (ENE) 23:32:57 437.525
PRISM 17 Jan 23:30:05 23:33:51 37° 288° (WNW) 23:37:37 437.425
AO-85 17 Jan 23:30:18 23:33:03 15° 252° (WSW) 23:35:51 145.980
TIGRISAT 17 Jan 23:31:20 23:33:07 12° 297° (WNW) 23:34:54 435.000
NANOSAT C BR1 17 Jan 23:35:18 23:38:51 25° 96° (E) 23:42:21 145.865
QB50P2 17 Jan 23:44:53 23:48:58 42° 99° (E) 23:53:00 145.880/145.840
ISS 18 Jan 00:06:54 00:07:48 11° 343° (NNW) 00:08:43 437.550
EO-79 18 Jan 00:17:03 00:21:21 89° 283° (WNW) 00:25:38 145.935-145.965
ESTCUBE 1 18 Jan 00:21:39 00:23:00 11° 269° (W) 00:24:22 437.505/2401.250
50 SAT 18 Jan 00:24:12 00:25:00 11° 68° (ENE) 00:25:47 437.505
